[[{"header":{"parameterUnit":"m.s-1","parameterCategory":1,"la1":30.2991,"la2":30.254,"lo1":-89.0895,"lo2":-89.0444,"dy":0.0017,"dx":0.0017,"nx":28,"ny":28,"refTime":"2024-10-18T09:00:00:Z","depth":0,"parameterNumber":2,"parameterNumberName":"U-component_of_WINDS"},"data":[0,0,0,0,0,0,0,0,0,0,0,0,0,0,0,0,0,0,0,0,0,0,0,0,0,0,0,0,0,0,0,0,0,0,0,0,0,0,0,0,0,0,0,0,0,0,0,0,0,0,0,0,0,0,0,0,0,0,-4.7453,-4.7454,0,-4.7503,-4.7503,-4.7504,-4.7311,-4.7305,-4.7299,-4.7294,-4.735,-4.7357,-4.7363,0,0,0,0,0,0,0,0,0,0,0,0,0,-4.7196,-4.7201,-4.7453,-4.7454,-4.7455,-4.7503,-4.7503,-4.7504,-4.7312,-4.7305,-4.7298,-4.7291,-4.7348,-4.7356,-4.7364,0,0,0,0,0,0,0,0,0,0,0,0,0,-4.7283,-4.7203,-4.7453,-4.7364,-4.7357,-4.7503,-4.7503,-4.7504,-4.7313,-4.7305,-4.7296,-4.7288,-4.7345,-4.7355,-4.7365,-4.76,0,0,-4.7396,-4.7401,0,0,0,0,0,0,0,0,-4.7278,-4.7293,-4.7377,-4.7371,-4.7362,-4.7392,-4.7433,-4.7537,-4.7315,-4.733,-4.7294,-4.7284,-4.7371,-4.7379,-4.7407,-4.7603,-4.7605,-4.7397,-4.7404,-4.7408,-4.7411,0,0,0,0,0,0,0,-4.7272,-4.7289,-4.7473,-4.7378,-4.737,-4.7323,-4.7326,-4.7452,-4.7398,-4.7328,-4.7314,-4.7322,-4.7366,-4.7398,-4.7407,-4.7606,-4.7397,-4.7406,-4.7412,-4.7416,-4.7998,-4.8006,0,0,0,0,0,0,-4.7278,-4.7286,-4.7471,-4.7474,-4.7298,-4.7335,-4.7338,-4.7391,-4.7396,-4.7389,-4.733,-4.7313,-4.7384,-4.7395,-4.7408,-4.7684,-4.7408,-4.7417,-4.7423,-4.7988,-4.8,-4.801,0,0,0,0,0,0,-4.7273,-4.7296,-4.7469,-4.7376,-4.7395,-4.7348,-4.741,-4.7397,-4.7428,-4.7397,-4.7387,-4.7372,-4.7378,-4.7394,-4.7554,-4.7683,-4.7422,-4.7431,-4.7977,-4.7992,-4.8005,-4.8239,0,0,0,0,0,0,-4.7266,-4.7295,-4.7384,-4.738,-4.74,-4.7614,-4.7418,-4.7404,-4.7446,-4.7425,-4.7435,-4.7428,-4.7372,-4.7539,-4.7564,-4.7693,-4.7439,-4.7966,-4.7984,-4.8,-4.8219,-4.8259,-4.8293,0,0,0,0,0,-4.7258,-4.7449,-4.7389,-4.7413,-4.751,-4.7622,-4.7633,-4.7564,-4.7457,-4.7546,-4.7526,-4.7428,-4.7665,-4.7557,-4.7583,-4.7717,-4.7957,-4.7979,-4.7999,-4.8203,-4.8251,-4.8292,0,0,0,0,0,0,-4.7472,-4.7447,-4.738,-4.7576,-4.7602,-4.7589,-4.7699,-4.7618,-4.7676,-4.7655,-4.7567,-4.7571,-4.7747,-4.7747,-4.7628,-4.7945,-4.7793,-4.782,-4.7939,-4.7984,-4.802,-4.8018,-4.7448,0,0,0,0,0,-4.7541,-4.7633,-4.7606,-4.7781,-4.7798,-4.7747,-4.7793,-4.7737,-4.7761,-4.7772,-4.7763,-4.7793,-4.7873,-4.7928,-4.8001,-4.8217,-4.8217,-4.8322,-4.8359,-4.8389,-4.8415,-4.8529,-4.8576,-4.8078,-4.8078,-4.8078,0,0,-4.7686,-4.7684,-4.7748,-4.7824,-4.7838,-4.7936,-4.7757,-4.7869,-4.7941,-4.7789,-4.7939,-4.7935,-4.7961,-4.815,-4.8233,-4.8156,-4.8552,-4.8416,-4.8441,-4.8449,-4.8556,-4.8603,-4.8645,-4.8092,-4.809,-4.8088,0,0,-4.8001,-4.8009,-4.8155,-4.8172,-4.8194,-4.8158,-4.8194,-4.8193,-4.8183,-4.8332,-4.822,-4.8305,-4.8446,-4.8469,-4.85,-4.8822,-4.8734,-4.8848,-4.9042,-4.9155,-4.9194,-4.9228,-4.9344,-4.9387,-4.8873,-4.8874,-4.8874,0,-4.818,-4.8322,-4.8241,-4.8359,-4.8397,-4.8261,-4.841,-4.843,-4.8477,-4.8506,-4.8418,-4.8592,-4.86,-4.8793,-4.8872,-4.89,-4.8939,-4.8848,-4.9194,-4.9228,-4.9259,-4.9369,-4.9412,-4.8887,-4.8886,-4.8884,-4.8883,0,-4.854,-4.864,-4.8756,-4.8802,-4.8852,-4.8985,-4.8925,-4.8986,-4.8925,-4.89,-4.9053,-4.9058,-4.9129,-4.917,-4.9113,-4.9356,-4.9307,-4.9209,-4.9054,-4.9322,-4.9423,-4.9465,-4.8907,-4.8902,-4.8898,-4.8895,0,0,-4.8994,-4.8991,-4.9035,-4.9054,-4.9068,-4.9145,-4.9272,-4.9339,-4.9393,-4.9429,-4.9535,-4.9656,-4.9564,-4.9599,-4.9543,-4.9642,-4.9898,-4.9531,-4.953,-4.96,-5.0167,-5.0242,-5.0292,-4.9839,-4.9847,-4.9853,-5.0165,0,-4.9303,-4.9519,-4.9449,-4.9668,-4.976,-4.9632,-4.9742,-4.9764,-4.9743,-4.9819,-4.9795,-4.9883,-4.9755,-4.9775,-4.9867,-4.9848,-5.0011,-4.9824,-4.9938,-4.9943,-4.9937,-5.0345,-5.0425,-5.072,-5.0204,-5.0211,-5.0216,0,-4.9694,-4.9743,-4.9972,-4.9969,-5.0005,-5.0106,-5.0162,-5.0235,-5.0257,-5.0234,-5.0273,-5.0196,-5.0321,-5.0165,-5.0337,-5.0212,-5.0254,-5.0251,-5.0261,-5.027,-5.0097,-5.0367,-5.0812,-5.0857,-5.0277,-5.0272,-5.0268,0,-5.0003,-5.0127,-5.0279,-5.0299,-5.03,-5.0373,-5.0378,-5.039,-5.0435,-5.0485,-5.0513,-5.0578,-5.0613,-5.0665,-5.0608,-5.0499,-5.079,-5.0629,-5.0776,-5.0778,-5.0845,-5.0842,-5.1304,-5.087,-5.087,-5.0869,-5.0868,0,-5.0357,-5.0502,-5.0417,-5.0511,-5.067,-5.0588,-5.0748,-5.0737,-5.075,-5.084,-5.0734,-5.0821,-5.0739,-5.082,-5.0776,-5.0926,-5.0943,-5.0929,-5.0916,-5.094,-5.0942,-5.0968,-5.0946,-5.088,-5.0878,-5.0876,-5.0874,0,-5.073,-5.0679,-5.0836,-5.0823,-5.0824,-5.0941,-5.0931,-5.1018,-5.0988,-5.1104,-5.1126,-5.1081,-5.117,-5.1117,-5.1209,-5.1179,-5.1375,-5.1333,-5.1367,-5.1357,-5.1508,-5.1495,-5.2004,-5.2067,-5.1592,-5.1597,-5.16,0,-5.096,-5.1068,-5.1066,-5.1118,-5.1129,-5.1214,-5.1259,-5.1183,-5.1234,-5.1266,-5.135,-5.1429,-5.1488,-5.1637,-5.1613,-5.1683,-5.1643,-5.1816,-5.1653,-5.1673,-5.1647,-5.1642,-5.1652,-5.185,-5.1856,-5.186,-5.1864,0,-5.1374,-5.1343,-5.1411,-5.147,-5.1526,-5.157,-5.1604,-5.1653,-5.1577,-5.164,-5.1729,-5.1775,-5.1867,-5.1948,-5.2007,-5.2012,-5.1927,-5.1915,-5.1953,-5.1979,-5.1995,-5.199,-5.1459,-5.1904,-5.19,-5.1897,-5.1895,-5.1894,-5.1683,-5.1773,-5.1786,-5.1864,-5.1882,-5.1917,-5.1997,-5.1977,-5.2049,-5.2117,-5.2068,-5.2174,-5.2192,-5.2261,-5.2278,-5.236,-5.229,-5.2345,-5.2359,-5.2375,-5.2396,-5.1981,-5.237,-5.2369,-5.2368,-5.2367,-5.2366,0,-5.2092,-5.2093,-5.2167,-5.2218,-5.228,-5.2191,-5.2225,-5.2284,-5.2377,-5.2401,-5.2461,-5.2563,-5.2641,-5.2622,-5.2692,-5.2762,-5.2725,-5.2783,-5.2778,-5.2781,-5.2454,-5.2414,-5.2812,-5.2812,-5.2812,-5.2812,-5.2812,-5.2812,-5.2313,-5.246,-5.2431,-5.2586,-5.2586,-5.2687,-5.2714,-5.2746,-5.2764,-5.2882,-5.2945,-5.2932,-5.2939,-5.3008,-5.3076,-5.3068,-5.31,-5.3174,-5.3153,-5.2848,-5.2804,-5.2762,-5.2724,-5.3181,-5.3181,-5.3472,-5.3475,-5.3477]},{"header":{"parameterUnit":"m.s-1","parameterCategory":1,"la1":30.2991,"la2":30.254,"lo1":-89.0895,"lo2":-89.0444,"dy":0.0017,"dx":0.0017,"nx":28,"ny":28,"refTime":"2024-10-18T09:00:00:Z","depth":0,"parameterNumber":3,"parameterNumberName":"V-component_of_WINDS"},"data":[0,0,0,0,0,0,0,0,0,0,0,0,0,0,0,0,0,0,0,0,0,0,0,0,0,0,0,0,0,0,0,0,0,0,0,0,0,0,0,0,0,0,0,0,0,0,0,0,0,0,0,0,0,0,0,0,0,0,-2.5728,-2.5729,0,-2.5738,-2.5738,-2.5738,-2.5712,-2.5711,-2.571,-2.571,-2.5718,-2.5719,-2.572,0,0,0,0,0,0,0,0,0,0,0,0,0,-2.5687,-2.5687,-2.5728,-2.5729,-2.5729,-2.5738,-2.5738,-2.5738,-2.5712,-2.5711,-2.571,-2.5709,-2.5718,-2.5719,-2.572,0,0,0,0,0,0,0,0,0,0,0,0,0,-2.5701,-2.5688,-2.5728,-2.5717,-2.5716,-2.5738,-2.5738,-2.5738,-2.5712,-2.5711,-2.571,-2.5709,-2.5717,-2.5719,-2.572,-2.5753,0,0,-2.5725,-2.5725,0,0,0,0,0,0,0,0,-2.57,-2.5703,-2.5719,-2.5718,-2.5717,-2.5722,-2.5726,-2.5743,-2.5713,-2.5714,-2.571,-2.5708,-2.572,-2.5722,-2.5726,-2.5753,-2.5754,-2.5725,-2.5726,-2.5726,-2.5727,0,0,0,0,0,0,0,-2.5699,-2.5702,-2.5732,-2.5719,-2.5718,-2.5711,-2.5711,-2.5729,-2.5724,-2.5714,-2.5712,-2.5713,-2.572,-2.5725,-2.5726,-2.5754,-2.5725,-2.5726,-2.5727,-2.5727,-2.5807,-2.5808,0,0,0,0,0,0,-2.57,-2.5702,-2.5732,-2.5732,-2.5705,-2.5712,-2.5713,-2.5722,-2.5723,-2.5722,-2.5714,-2.5712,-2.5723,-2.5724,-2.5726,-2.5763,-2.5726,-2.5728,-2.5728,-2.5806,-2.5807,-2.5808,0,0,0,0,0,0,-2.5699,-2.5703,-2.5731,-2.5716,-2.5719,-2.5714,-2.5724,-2.5723,-2.5727,-2.5724,-2.5723,-2.572,-2.5722,-2.5724,-2.5746,-2.5763,-2.5728,-2.573,-2.5804,-2.5806,-2.5808,-2.5838,0,0,0,0,0,0,-2.5698,-2.5703,-2.5716,-2.5717,-2.572,-2.5752,-2.5725,-2.5724,-2.573,-2.5727,-2.5729,-2.5728,-2.5721,-2.5744,-2.5748,-2.5764,-2.5731,-2.5803,-2.5805,-2.5807,-2.5835,-2.5841,-2.5845,0,0,0,0,0,-2.5697,-2.5724,-2.5717,-2.572,-2.5737,-2.5753,-2.5755,-2.5746,-2.5732,-2.5744,-2.5742,-2.5728,-2.5761,-2.5747,-2.575,-2.5768,-2.5801,-2.5804,-2.5807,-2.5833,-2.584,-2.5845,0,0,0,0,0,0,-2.5725,-2.5724,-2.5716,-2.5745,-2.5749,-2.5749,-2.5764,-2.5754,-2.5762,-2.5759,-2.5747,-2.5748,-2.5772,-2.5772,-2.5756,-2.5799,-2.5779,-2.5782,-2.5797,-2.5803,-2.5808,-2.5807,-2.5732,0,0,0,0,0,-2.5735,-2.5749,-2.5747,-2.5773,-2.5775,-2.5769,-2.5776,-2.5769,-2.5773,-2.5775,-2.5774,-2.5778,-2.5789,-2.5796,-2.5806,-2.5836,-2.5835,-2.585,-2.5854,-2.5858,-2.5861,-2.5875,-2.5881,-2.5818,-2.5818,-2.5817,0,0,-2.5755,-2.5756,-2.5766,-2.5778,-2.5781,-2.5795,-2.5771,-2.5787,-2.5797,-2.5777,-2.5797,-2.5797,-2.5801,-2.5826,-2.5837,-2.5827,-2.5879,-2.5862,-2.5865,-2.5866,-2.5878,-2.5884,-2.589,-2.5819,-2.5819,-2.5819,0,0,-2.5798,-2.5801,-2.5822,-2.5825,-2.5829,-2.5825,-2.583,-2.5831,-2.5829,-2.585,-2.5835,-2.5846,-2.5866,-2.5868,-2.5872,-2.5916,-2.5903,-2.5919,-2.5944,-2.5957,-2.5962,-2.5967,-2.598,-2.5986,-2.5922,-2.5922,-2.5922,0,-2.5822,-2.5843,-2.5834,-2.585,-2.5855,-2.5838,-2.5858,-2.5862,-2.5869,-2.5873,-2.5861,-2.5884,-2.5886,-2.5911,-2.5921,-2.5926,-2.593,-2.5918,-2.5963,-2.5967,-2.5971,-2.5983,-2.5989,-2.5924,-2.5924,-2.5924,-2.5924,0,-2.5871,-2.5886,-2.5902,-2.5909,-2.5916,-2.5934,-2.5927,-2.5935,-2.5928,-2.5924,-2.5944,-2.5946,-2.5955,-2.596,-2.5953,-2.5984,-2.5977,-2.5965,-2.5944,-2.5979,-2.599,-2.5995,-2.5927,-2.5926,-2.5926,-2.5925,0,0,-2.5932,-2.5933,-2.5939,-2.5941,-2.5944,-2.5955,-2.5972,-2.5981,-2.5987,-2.5993,-2.6006,-2.6023,-2.6011,-2.6015,-2.6008,-2.602,-2.6052,-2.6006,-2.6005,-2.6013,-2.6084,-2.6092,-2.6098,-2.6044,-2.6045,-2.6046,-2.6083,0,-2.5973,-2.6002,-2.5994,-2.6023,-2.6035,-2.6018,-2.6033,-2.6036,-2.6033,-2.6043,-2.604,-2.6051,-2.6035,-2.6037,-2.6049,-2.6046,-2.6066,-2.6043,-2.6055,-2.6055,-2.6053,-2.6104,-2.6113,-2.6148,-2.6088,-2.6088,-2.6089,0,-2.6025,-2.6031,-2.6061,-2.6061,-2.6066,-2.6079,-2.6085,-2.6095,-2.6098,-2.6095,-2.61,-2.609,-2.6105,-2.6086,-2.6106,-2.6091,-2.6096,-2.6095,-2.6096,-2.6095,-2.6073,-2.6103,-2.6159,-2.6164,-2.6096,-2.6096,-2.6095,0,-2.6064,-2.6081,-2.61,-2.6103,-2.6103,-2.6112,-2.6113,-2.6115,-2.612,-2.6126,-2.6129,-2.6137,-2.6141,-2.6147,-2.6139,-2.6126,-2.616,-2.614,-2.6157,-2.6157,-2.6164,-2.6163,-2.6219,-2.617,-2.617,-2.6169,-2.6169,0,-2.6109,-2.6127,-2.6117,-2.6129,-2.6149,-2.6139,-2.6159,-2.6157,-2.6159,-2.6169,-2.6156,-2.6166,-2.6156,-2.6165,-2.6159,-2.6176,-2.6179,-2.6176,-2.6174,-2.6176,-2.6176,-2.6177,-2.6174,-2.6171,-2.617,-2.617,-2.617,0,-2.6155,-2.6149,-2.6169,-2.6168,-2.6168,-2.6182,-2.6181,-2.6191,-2.6187,-2.6201,-2.6203,-2.6198,-2.6207,-2.62,-2.6211,-2.6207,-2.6228,-2.6224,-2.6227,-2.6225,-2.6242,-2.6239,-2.6299,-2.6306,-2.6254,-2.6254,-2.6255,0,-2.6184,-2.6197,-2.6197,-2.6203,-2.6204,-2.6215,-2.622,-2.6211,-2.6217,-2.622,-2.623,-2.6239,-2.6245,-2.6261,-2.6258,-2.6265,-2.6259,-2.628,-2.626,-2.6262,-2.6257,-2.6256,-2.6256,-2.6283,-2.6284,-2.6284,-2.6285,0,-2.6234,-2.623,-2.6239,-2.6245,-2.6252,-2.6257,-2.6261,-2.6266,-2.6257,-2.6264,-2.6274,-2.6279,-2.6289,-2.6297,-2.6303,-2.6303,-2.6292,-2.6291,-2.6295,-2.6297,-2.6297,-2.6295,-2.6236,-2.6289,-2.6289,-2.6289,-2.6288,-2.6288,-2.6271,-2.6282,-2.6283,-2.6292,-2.6294,-2.6297,-2.6306,-2.6304,-2.6312,-2.6319,-2.6313,-2.6324,-2.6326,-2.6332,-2.6334,-2.6342,-2.6333,-2.634,-2.6341,-2.6342,-2.6343,-2.6297,-2.6343,-2.6343,-2.6343,-2.6343,-2.6343,0,-2.6319,-2.6319,-2.6327,-2.6333,-2.634,-2.6329,-2.6333,-2.6339,-2.6349,-2.6351,-2.6357,-2.6368,-2.6376,-2.6373,-2.638,-2.6387,-2.6382,-2.6389,-2.6387,-2.6387,-2.6351,-2.6347,-2.6392,-2.6392,-2.6392,-2.6392,-2.6392,-2.6392,-2.6345,-2.6362,-2.6358,-2.6375,-2.6375,-2.6385,-2.6388,-2.6391,-2.6392,-2.6405,-2.6411,-2.6409,-2.6409,-2.6415,-2.6422,-2.642,-2.6423,-2.6431,-2.6428,-2.6395,-2.639,-2.6385,-2.638,-2.6432,-2.6432,-2.6462,-2.6463,-2.6463]}]]